Temperature
4 5 5 4 4 4 4 4 4 5 6 7 7 7 7 8 7 7 6 6 6 6 5 5 5 5 5 5 5 4 4 4 4 4 4 4 4 4 4 4 4 4 5 5
3 5 5 4 5 5 5 5 5 5 5 6 7 7 7 7 7 6 6 6 5 5 5 5 5 5 4 4 4 4 4 3 3 3 3 4 4 4 4 4 4 4 4 4
3 4 4 3 5 5 5 5 5 5 5 6 6 6 6 6 6 6 5 5 4 4 4 4 4 4 4 4 3 3 3 3 3 3 3 3 3 3 3 3 3 3 4 4
2 3 2 5 7 7 6 6 6 5 6 6 6 6 6 6 5 5 4 4 4 3 3 3 3 3 3 3 3 3 3 2 2 2 2 2 2 3 3 3 3 3 3 3
2 2 3 5 6 6 5 4 5 5 5 5 6 5 5 5 4 4 3 3 3 3 3 3 3 3 3 3 2 2 2 2 2 2 2 2 2 2 2 3 3 3 3 3
2 2 3 5 5 6 5 3 5 5 5 4 4 3 3 4 4 3 3 3 3 3 3 2 2 2 2 2 2 2 2 2 1 1 1 1 1 2 2 2 2 3 3 3
1 2 3 4 5 5 3 2 4 5 4 4 3 3 3 3 3 3 2 2 2 2 2 2 2 2 2 2 1 1 1 1 1 1 1 1 1 1 1 1 2 2 2 3
1 1 2 4 4 3 3 4 4 4 4 3 3 3 3 3 2 2 2 2 2 2 2 2 1 1 1 1 1 1 1 1 1 1 1 1 1 1 1 1 1 2 2 2
2 2 3 4 4 4 4 4 4 4 3 3 2 2 2 2 1 1 1 1 1 1 1 1 1 1 1 1 1 1 1 1 1 1 1 1 1 1 1 1 1 1 1 2
2 2 3 4 4 4 4 4 3 3 2 2 2 1 1 1 1 1 1 1 1 1 1 1 0 0 0 0 0 0 0 0 0 0 0 1 1 1 1 1 1 1 1 1
1 2 3 3 3 3 3 3 2 2 2 1 1 1 0 0 0 0 0 0 0 -0 -0 -0 -0 0 -0 -0 -0 -0 -0 -0 -0 -0 0 0 0 0 0 0 1 1 1 1
1 2 2 2 3 2 2 2 1 1 1 0 0 -0 -0 -1 -1 -1 -1 -1 -1 -1 -1 -1 -1 -1 -0 -1 -1 -1 -0 -0 -0 -0 -0 -0 -0 0 0 0 1 1 1 1
2 2 2 2 2 1 1 1 0 -0 -0 -1 -1 -1 -1 -1 -1 -1 -1 -1 -1 -1 -1 -1 -1 -1 -1 -1 -1 -1 -1 -1 -1 -0 -0 -0 -0 -1 -0 0 1 1 1 1
1 1 1 1 0 0 -0 -0 -1 -1 -1 -1 -2 -2 -2 -2 -2 -2 -2 -2 -2 -2 -2 -2 -1 -1 -1 -1 -1 -1 -1 -1 -1 -1 -1 -1 -1 -1 -1 -1 -0 0 0 0
-0 -0 -0 -1 -1 -1 -1 -1 -1 -2 -2 -2 -2 -2 -3 -3 -3 -3 -3 -3 -2 -2 -2 -2 -2 -2 -2 -1 -1 -1 -1 -1 -1 -1 -1 -1 -1 -1 -1 -1 -1 -1 -1 -0
-1 -1 -1 -1 -2 -2 -2 -2 -2 -3 -3 -3 -3 -3 -3 -4 -3 -3 -3 -3 -3 -3 -3 -3 -2 -2 -2 -2 -2 -2 -2 -2 -2 -2 -1 -1 -1 -1 -1 -1 -2 -2 -1 -1
-2 -3 -3 -3 -3 -3 -3 -3 -3 -3 -4 -4 -4 -4 -4 -4 -4 -4 -4 -4 -4 -3 -3 -3 -3 -3 -3 -2 -2 -2 -2 -2 -2 -2 -2 -2 -2 -2 -2 -2 -2 -2 -2 -1
-3 -3 -3 -4 -4 -4 -4 -4 -4 -4 -4 -4 -4 -4 -5 -5 -5 -5 -4 -4 -4 -4 -4 -4 -4 -3 -3 -3 -3 -3 -3 -3 -3 -3 -3 -3 -3 -2 -2 -2 -2 -2 -2 -2
-4 -4 -4 -4 -4 -4 -4 -4 -5 -5 -5 -5 -5 -5 -5 -5 -5 -5 -5 -5 -4 -4 -4 -4 -4 -4 -4 -4 -4 -4 -4 -3 -3 -3 -3 -3 -3 -3 -3 -3 -3 -3 -2 -2
-5 -5 -5 -5 -5 -5 -5 -5 -5 -5 -5 -5 -5 -5 -5 -5 -5 -6 -5 -5 -5 -5 -5 -5 -5 -5 -4 -4 -4 -4 -4 -4 -4 -4 -4 -4 -4 -4 -3 -3 -3 -3 -3 -2
-5 -5 -5 -5 -5 -5 -6 -6 -6 -6 -6 -6 -6 -6 -6 -6 -6 -6 -6 -6 -6 -6 -6 -5 -5 -5 -5 -5 -5 -5 -4 -4 -4 -4 -4 -4 -4 -4 -4 -4 -4 -4 -3 -3
-6 -6 -6 -6 -6 -6 -6 -6 -6 -6 -6 -6 -7 -7 -7 -7 -6 -7 -6 -6 -6 -6 -6 -6 -6 -6 -6 -5 -5 -5 -5 -5 -5 -5 -5 -5 -5 -4 -4 -4 -4 -4 -4 -3
-6 -6 -6 -6 -7 -7 -7 -7 -7 -7 -7 -7 -7 -7 -7 -7 -7 -7 -7 -7 -7 -7 -7 -6 -6 -6 -6 -6 -6 -6 -5 -5 -5 -5 -5 -5 -5 -5 -5 -5 -4 -4 -4 -4
-7 -7 -7 -7 -7 -7 -7 -7 -7 -7 -7 -7 -7 -7 -7 -7 -7 -7 -7 -7 -7 -7 -7 -7 -7 -6 -6 -6 -6 -6 -6 -6 -6 -6 -5 -5 -5 -5 -5 -5 -5 -4 -4 -4
-7 -7 -7 -7 -8 -8 -8 -8 -8 -8 -8 -8 -8 -8 -8 -8 -8 -7 -7 -7 -7 -7 -7 -7 -7 -7 -7 -6 -6 -6 -6 -6 -6 -6 -6 -6 -5 -5 -5 -5 -5 -5 -4 -4
-8 -8 -8 -8 -8 -8 -9 -9 -9 -8 -8 -8 -8 -8 -8 -8 -8 -8 -8 -8 -7 -7 -7 -7 -7 -7 -7 -7 -7 -7 -7 -6 -6 -6 -6 -6 -6 -6 -5 -5 -5 -5 -5 -5
-8 -8 -8 -8 -8 -9 -9 -9 -9 -9 -9 -9 -8 -8 -8 -8 -8 -8 -8 -8 -8 -8 -7 -7 -7 -7 -7 -7 -7 -7 -7 -7 -6 -6 -6 -6 -6 -6 -6 -5 -5 -5 -5 -5
Wind_Speed
10 9 6 8 9 10 12 12 10 12 15 15 11 10 9 8 7 7 7 7 6 5 6 6 5 5 4 4 3 3 3 3 4 4 4 4 3 3 4 4 5 5 5 5
9 11 10 12 12 13 14 15 17 17 18 13 10 9 8 7 6 6 7 7 6 6 7 7 6 5 4 4 4 4 4 4 4 4 4 4 4 4 5 4 5 5 5 5
6 7 7 11 13 14 12 11 11 14 14 10 9 8 6 6 5 6 6 7 7 7 6 6 6 4 4 4 4 4 4 4 4 4 5 5 5 5 5 5 5 5 5 5
5 4 9 8 4 7 10 11 9 8 7 6 6 5 5 5 5 6 6 6 7 7 7 6 5 4 4 4 4 4 5 5 5 5 6 6 5 6 6 5 5 5 5 5
4 6 8 7 3 3 4 6 5 6 6 5 5 5 5 4 5 5 5 6 6 5 5 6 6 5 5 4 4 4 5 5 5 6 6 6 6 6 6 5 4 4 4 4
5 5 5 2 1 2 1 3 2 2 4 5 5 5 5 5 6 6 6 5 5 5 5 6 6 5 5 5 4 5 5 5 5 5 5 6 5 5 5 4 4 3 3 2
8 7 6 3 1 3 2 4 2 2 4 5 4 4 5 6 7 6 7 6 6 6 5 5 5 5 5 5 5 5 5 4 5 5 5 5 5 4 3 3 3 2 2 1
6 7 7 1 3 2 3 2 2 3 4 5 5 6 6 7 7 7 7 7 6 5 5 5 5 5 5 6 5 5 4 4 4 5 5 5 4 3 2 2 2 2 2 2
6 6 3 1 2 3 3 3 4 3 4 4 5 6 7 7 7 7 7 7 6 6 6 5 5 5 6 6 4 4 4 5 5 4 4 4 2 2 1 1 1 1 1 1
5 5 4 5 5 4 3 4 4 3 4 4 6 7 8 7 7 7 7 7 6 6 6 6 5 5 5 6 4 4 5 5 4 4 4 3 1 0 0 0 0 1 1 1
7 7 6 5 4 4 4 4 4 4 4 4 6 7 7 7 7 6 7 6 5 5 6 6 5 5 5 5 4 4 4 4 4 3 2 2 1 1 0 0 1 1 0 0
7 5 5 5 4 4 4 4 3 4 5 5 5 6 7 7 6 6 7 6 6 6 6 6 6 5 5 4 4 3 3 3 3 2 2 1 1 2 3 2 3 2 1 2
5 5 4 4 3 3 3 4 4 4 5 5 5 5 6 6 6 6 7 7 6 6 6 6 5 5 4 3 3 3 3 3 3 2 2 1 0 1 2 4 4 3 3 3
3 3 4 3 3 3 3 3 3 4 4 4 5 5 5 6 7 7 8 7 7 6 6 6 5 5 4 3 3 3 3 3 3 2 2 1 0 0 0 1 2 3 3 3
4 3 3 2 3 3 3 3 3 4 4 5 4 5 6 6 7 7 7 7 6 6 6 5 5 5 4 3 3 3 3 2 2 2 1 1 1 1 1 1 1 2 3 3
4 3 2 2 3 3 3 3 3 4 4 5 5 5 6 6 7 7 6 6 6 7 6 6 5 4 4 3 3 3 2 4 3 2 2 1 1 1 1 1 1 1 2 2
1 2 2 3 3 3 3 3 3 4 4 4 5 6 6 6 6 7 6 6 5 5 5 5 4 4 4 3 3 2 2 2 3 2 1 1 1 1 1 1 1 1 2 2
1 2 2 3 3 4 4 3 3 4 4 5 5 5 5 6 7 7 7 6 6 6 5 4 4 4 4 3 3 2 2 1 1 1 1 1 1 1 1 1 1 1 2 2
3 3 3 3 3 3 3 3 4 4 4 5 5 5 5 5 6 6 6 6 6 6 6 5 6 5 4 4 4 2 2 2 2 2 2 1 1 1 1 1 1 1 2 2
3 3 3 3 3 3 3 4 4 4 4 5 5 5 6 6 5 5 5 5 5 4 5 5 5 4 4 3 4 2 2 2 2 2 2 1 1 1 1 1 1 2 2 2
3 3 3 3 3 3 3 3 4 4 5 5 5 5 6 6 5 5 5 5 5 5 5 6 4 3 3 3 3 2 2 2 2 2 1 1 1 1 1 1 2 2 2 1
3 3 3 3 3 4 4 4 3 4 5 5 5 5 5 6 6 5 4 4 5 7 5 4 3 4 4 4 2 2 2 2 1 1 1 1 1 1 1 1 1 2 1 1
3 3 3 3 4 4 5 4 4 4 4 5 5 5 5 5 5 4 5 4 3 6 5 3 4 6 6 3 2 2 2 2 2 1 1 0 0 0 0 1 1 1 1 1
3 3 3 3 3 4 5 5 4 4 4 5 5 5 5 5 4 3 3 6 7 7 4 5 7 6 5 3 2 2 2 2 2 1 1 0 0 0 1 1 1 1 1 1
3 3 3 3 4 3 4 4 4 4 4 4 4 4 4 3 3 4 4 4 6 7 4 5 6 6 4 2 2 2 2 2 1 1 1 0 0 1 1 1 1 1 1 1
3 3 3 4 4 3 3 4 4 4 4 4 4 4 3 3 3 4 4 4 5 6 4 3 3 4 2 2 2 2 2 2 2 2 1 1 1 1 1 1 1 1 1 1
4 3 3 3 3 3 3 3 4 4 4 4 5 4 4 4 4 4 4 3 3 3 3 2 2 2 2 2 2 2 2 2 1 1 1 1 1 1 1 1 1 1 1 1
Wind_Direction
262 275 263 254 253 236 229 231 241 259 268 277 293 308 316 320 326 331 335 336 332 333 333 331 328 326 333 330 324 323 321 315 310 306 308 304 290 280 285 280 283 278 266 262
259 255 252 260 253 243 239 238 243 260 270 276 295 303 307 313 323 326 329 329 332 334 328 325 324 324 331 329 329 328 319 312 311 312 312 308 302 288 289 287 287 285 271 258
259 269 276 259 241 236 235 231 236 248 260 283 294 305 310 315 324 324 323 327 333 329 323 321 323 326 325 318 322 324 316 312 315 317 310 306 307 300 285 280 282 280 278 266
254 258 242 245 228 221 235 247 242 256 275 293 306 316 331 336 339 335 335 338 338 332 330 326 325 324 317 318 322 317 313 311 315 317 311 310 307 301 292 282 281 275 271 266
230 241 262 266 243 212 222 257 253 262 285 311 323 328 335 353 358 345 334 330 325 323 322 324 324 325 324 320 316 314 311 314 317 313 308 308 302 298 300 301 295 284 276 270
234 240 245 280 37 63 109 264 297 305 311 321 332 317 311 346 353 346 334 327 323 323 322 321 319 321 320 309 309 305 304 307 309 309 306 302 298 299 305 307 299 298 290 268
236 247 258 282 67 76 189 253 345 342 320 317 303 283 305 332 336 333 325 321 323 321 319 315 319 314 305 303 301 300 305 308 308 308 306 301 298 297 304 311 311 323 330 4
216 232 243 116 94 168 252 314 336 325 324 324 318 317 322 324 323 323 323 320 317 313 309 311 317 313 303 298 295 302 302 300 301 301 304 304 296 297 308 323 337 354 16 18
211 230 270 208 255 268 286 298 309 315 317 316 310 308 311 311 313 314 314 312 311 306 301 304 310 310 304 301 302 308 305 301 299 300 299 299 286 290 316 359 14 3 23 18
267 264 276 283 281 278 293 306 315 320 318 311 301 301 303 305 307 307 305 305 307 307 305 302 302 305 303 306 309 311 306 302 301 301 305 311 315 307 36 46 71 1 356 352
263 271 277 271 285 303 312 316 314 315 311 304 302 300 301 304 304 306 308 306 306 304 303 304 306 309 312 314 314 313 308 305 309 311 314 332 352 20 26 304 218 196 241 295
254 269 273 285 304 316 311 312 319 320 313 312 304 298 300 300 301 304 305 307 308 306 305 307 308 302 302 305 305 301 303 309 314 317 330 340 12 13 9 7 9 7 344 321
268 292 290 297 319 337 318 314 318 315 305 304 304 302 301 301 302 304 305 306 302 298 297 299 302 302 303 304 308 305 300 301 307 319 332 331 9 50 7 7 10 5 352 343
313 312 296 305 310 318 314 310 310 306 301 300 305 308 308 306 307 306 304 304 304 303 302 303 304 304 314 327 324 316 310 306 313 314 324 326 337 16 31 30 2 354 352 356
315 307 280 298 316 315 312 316 313 309 316 321 324 320 316 311 307 306 307 310 313 311 307 309 309 313 332 338 325 317 320 322 326 338 350 355 17 30 41 52 33 0 357 3
315 324 331 311 299 307 318 319 309 306 316 318 321 319 315 310 307 308 313 316 316 311 312 313 312 319 335 329 318 320 324 322 340 360 6 2 14 33 48 56 34 9 357 4
323 306 314 310 305 309 313 313 306 305 310 312 313 316 318 317 315 314 316 316 311 306 310 313 316 325 330 331 326 321 325 334 345 357 3 353 1 20 63 69 40 4 346 344
318 298 295 290 294 297 303 311 313 313 311 311 318 320 317 316 313 314 321 326 327 325 327 325 326 334 338 336 334 330 337 358 12 6 4 10 19 52 74 74 38 6 356 353
356 339 328 317 308 303 303 310 315 317 318 319 317 312 311 313 314 317 326 332 326 319 324 336 336 342 339 330 335 349 5 20 20 17 14 10 34 59 57 45 27 13 6 9
357 350 340 333 335 331 318 313 314 312 315 317 315 315 317 318 322 324 325 319 309 305 316 327 335 339 335 334 342 1 10 23 20 13 16 59 70 56 42 26 22 18 13 8
342 343 339 334 331 333 325 317 315 313 316 318 315 311 310 313 318 320 319 316 320 330 331 330 340 338 337 343 351 6 12 13 13 8 22 64 67 52 35 20 13 9 6 8
334 332 330 329 328 326 327 325 319 314 315 316 314 312 312 313 316 315 303 294 305 325 334 335 338 335 335 340 0 10 11 3 4 8 28 65 75 57 23 4 357 349 348 360
327 329 330 327 320 315 317 318 314 313 311 311 311 308 304 302 305 306 309 314 320 325 331 326 326 330 336 346 1 10 4 354 357 359 2 46 74 39 5 349 350 345 340 353
331 330 321 318 316 313 312 315 316 312 304 301 299 297 296 303 308 300 291 307 317 319 320 318 324 330 338 349 356 360 350 339 338 342 354 34 48 352 340 343 345 337 340 354
321 312 309 314 314 308 308 313 315 311 306 305 303 301 295 286 288 302 308 310 315 320 322 322 330 335 343 348 352 346 336 320 317 326 327 337 314 321 322 323 329 330 341 355
312 307 303 296 291 296 304 309 310 311 314 314 314 314 311 307 299 298 302 308 310 315 318 315 321 326 336 339 336 331 326 323 326 328 322 310 294 289 288 304 315 321 339 19
307 306 310 315 316 312 313 311 307 307 309 307 308 310 309 307 303 300 299 303 307 311 312 315 318 321 326 329 329 328 327 322 313 305 301 295 289 283 285 296 313 349 21 59
Height
1429 1426 1428 1429 1428 1428 1430 1429 1429 1418 1412 1405 1404 1403 1402 1401 1399 1398 1396 1395 1393 1390 1388 1387 1385 1383 1381 1379 1377 1375 1372 1370 1368 1367 1366 1365 1364 1364 1363 1362 1361 1361 1361 1361
1429 1423 1423 1422 1419 1419 1420 1419 1417 1414 1409 1403 1402 1401 1400 1399 1398 1396 1395 1393 1391 1389 1387 1385 1382 1380 1378 1376 1374 1372 1369 1367 1365 1364 1363 1361 1360 1359 1358 1357 1356 1355 1354 1354
1426 1420 1420 1419 1409 1409 1409 1406 1408 1409 1403 1400 1400 1398 1397 1396 1395 1395 1393 1392 1389 1387 1385 1382 1380 1378 1375 1373 1371 1369 1366 1364 1362 1361 1359 1357 1356 1355 1354 1352 1351 1349 1348 1349
1426 1424 1425 1405 1395 1396 1399 1399 1400 1399 1397 1397 1397 1396 1396 1395 1394 1393 1391 1389 1387 1384 1382 1380 1377 1375 1373 1370 1368 1366 1363 1361 1360 1358 1355 1354 1352 1350 1349 1347 1346 1345 1344 1344
1422 1419 1411 1398 1394 1395 1397 1398 1396 1396 1395 1395 1395 1394 1393 1393 1393 1392 1389 1387 1385 1382 1380 1377 1375 1372 1370 1367 1365 1363 1361 1359 1357 1355 1352 1350 1347 1345 1344 1342 1341 1340 1340 1340
1419 1417 1411 1398 1394 1392 1396 1400 1395 1394 1394 1394 1394 1396 1394 1392 1391 1389 1387 1385 1382 1380 1377 1374 1372 1370 1366 1363 1361 1360 1358 1356 1354 1352 1349 1347 1344 1342 1340 1339 1337 1336 1336 1336
1416 1413 1405 1396 1393 1394 1404 1402 1395 1394 1394 1394 1394 1395 1393 1390 1389 1387 1385 1382 1380 1377 1374 1372 1369 1367 1364 1361 1359 1358 1356 1353 1351 1349 1346 1343 1341 1339 1338 1336 1335 1334 1334 1334
1411 1411 1406 1394 1394 1398 1398 1394 1393 1393 1393 1393 1392 1391 1389 1388 1386 1384 1382 1379 1377 1374 1371 1369 1367 1364 1361 1358 1357 1355 1353 1350 1348 1345 1343 1341 1339 1337 1336 1335 1334 1333 1333 1333
1402 1400 1394 1392 1393 1393 1393 1393 1392 1392 1391 1391 1390 1388 1387 1385 1383 1381 1379 1376 1374 1371 1368 1366 1364 1361 1359 1356 1354 1352 1349 1347 1344 1342 1340 1338 1337 1336 1335 1334 1333 1333 1332 1332
1396 1392 1391 1391 1390 1391 1391 1391 1390 1390 1389 1388 1387 1386 1384 1382 1380 1378 1375 1373 1371 1368 1365 1362 1360 1358 1356 1353 1351 1349 1347 1344 1342 1340 1337 1336 1335 1335 1334 1333 1333 1332 1332 1332
1393 1390 1388 1388 1388 1388 1388 1388 1387 1387 1386 1385 1384 1382 1381 1379 1377 1375 1372 1370 1368 1365 1361 1359 1357 1355 1353 1351 1349 1346 1344 1342 1339 1338 1336 1335 1335 1334 1334 1334 1333 1333 1332 1331
1389 1386 1386 1385 1385 1385 1385 1384 1384 1384 1383 1382 1381 1379 1377 1375 1373 1371 1369 1366 1364 1361 1358 1356 1354 1351 1350 1348 1347 1344 1342 1340 1338 1336 1335 1334 1333 1333 1333 1333 1333 1332 1332 1331
1383 1382 1382 1382 1382 1382 1382 1381 1381 1381 1380 1378 1377 1376 1374 1371 1370 1367 1365 1363 1360 1357 1355 1352 1350 1349 1347 1346 1344 1342 1340 1338 1337 1335 1334 1334 1333 1332 1331 1331 1331 1331 1330 1329
1379 1379 1379 1379 1379 1379 1379 1378 1378 1377 1376 1375 1374 1372 1370 1368 1366 1364 1361 1359 1357 1354 1352 1349 1348 1346 1345 1343 1342 1340 1339 1337 1336 1335 1334 1333 1332 1332 1331 1329 1328 1328 1328 1328
1377 1377 1377 1377 1377 1377 1376 1376 1375 1374 1373 1372 1370 1369 1367 1365 1363 1360 1358 1356 1353 1351 1349 1347 1345 1343 1342 1341 1340 1338 1337 1335 1334 1334 1333 1332 1332 1331 1330 1330 1329 1328 1327 1326
1375 1374 1374 1374 1374 1374 1374 1373 1372 1371 1370 1369 1367 1365 1364 1362 1359 1357 1355 1353 1350 1348 1346 1344 1342 1341 1340 1339 1338 1336 1335 1334 1333 1332 1332 1331 1331 1330 1330 1329 1329 1328 1327 1327
1372 1372 1372 1372 1372 1371 1371 1371 1370 1369 1368 1366 1364 1363 1361 1358 1356 1354 1352 1350 1348 1345 1343 1342 1340 1339 1338 1336 1335 1334 1333 1332 1332 1331 1331 1330 1330 1329 1329 1329 1328 1328 1327 1327
1371 1371 1371 1370 1370 1369 1368 1368 1367 1366 1365 1363 1362 1360 1358 1355 1353 1351 1349 1346 1344 1342 1341 1339 1338 1336 1335 1334 1333 1332 1331 1330 1330 1329 1329 1329 1329 1329 1328 1328 1328 1327 1327 1327
1368 1368 1368 1368 1367 1367 1366 1365 1364 1363 1362 1360 1359 1357 1355 1353 1351 1348 1346 1344 1341 1339 1338 1337 1335 1334 1333 1332 1331 1330 1330 1329 1328 1328 1328 1328 1328 1328 1328 1328 1328 1327 1327 1327
1367 1366 1366 1365 1365 1364 1363 1362 1361 1360 1359 1357 1355 1353 1351 1350 1348 1346 1343 1341 1339 1338 1336 1335 1333 1332 1331 1330 1330 1329 1328 1328 1328 1327 1327 1328 1327 1328 1328 1328 1327 1327 1327 1326
1365 1365 1364 1363 1363 1362 1361 1360 1358 1357 1355 1354 1353 1351 1349 1347 1345 1343 1341 1339 1337 1336 1334 1333 1332 1331 1330 1329 1329 1328 1327 1327 1327 1327 1327 1327 1327 1327 1327 1327 1327 1326 1326 1326
1364 1363 1362 1361 1360 1359 1358 1357 1356 1354 1353 1351 1349 1348 1346 1344 1342 1341 1339 1338 1336 1334 1333 1332 1331 1330 1329 1329 1328 1327 1327 1326 1326 1326 1326 1326 1326 1326 1326 1326 1326 1326 1326 1326
1363 1362 1361 1359 1358 1357 1355 1354 1353 1352 1350 1348 1347 1345 1344 1342 1340 1339 1337 1336 1334 1333 1332 1331 1330 1329 1329 1328 1328 1327 1326 1326 1325 1326 1326 1326 1326 1326 1326 1326 1326 1326 1326 1326
1361 1360 1359 1358 1356 1354 1353 1352 1350 1349 1348 1346 1345 1343 1342 1340 1338 1337 1336 1334 1333 1332 1331 1330 1329 1329 1328 1327 1327 1326 1326 1325 1325 1325 1325 1325 1325 1325 1325 1325 1325 1325 1326 1326
1360 1358 1357 1355 1354 1352 1351 1349 1348 1346 1345 1343 1342 1341 1340 1338 1336 1335 1334 1332 1331 1330 1329 1328 1328 1327 1327 1326 1325 1325 1325 1324 1324 1324 1324 1324 1324 1324 1324 1324 1325 1325 1325 1325
1358 1357 1355 1354 1352 1351 1349 1347 1346 1344 1343 1341 1339 1338 1337 1336 1334 1333 1332 1330 1329 1328 1327 1327 1326 1326 1325 1324 1324 1324 1323 1323 1323 1323 1323 1323 1323 1323 1323 1324 1324 1324 1325 1325
1356 1355 1353 1352 1350 1349 1347 1346 1344 1342 1341 1339 1337 1336 1335 1334 1332 1331 1330 1329 1328 1327 1326 1325 1325 1324 1324 1323 1323 1323 1322 1322 1322 1322 1322 1322 1322 1322 1323 1323 1323 1324 1324 1325